Regional Weather Roundup
Issued by NWS

Home | Current Version | Previous Version | Graphics & Text | Print | Product List | Glossary On
Versions: 1 2 3 4 5 6 7 8 9 10 11 12 13 14 15 16 17 18 19 20 21 22 23 24 25 26 27 28 29 30 31 32 33 34 35 36 37 38 39 40 41 42 43 44 45 46 47 48 49 50
000
ASUS43 KIND 060259
RWRIN

WEATHER ROUNDUP FOR INDIANA
NATIONAL WEATHER SERVICE INDIANAPOLIS IN
1100 PM EDT TUE MAY 05 2015

NOTE: "FAIR" INDICATES FEW OR NO CLOUDS BELOW 12,000 FEET WITH NO
SIGNIFICANT WEATHER AND/OR OBSTRUCTIONS TO VISIBILITY.

* - STATION DOES NOT REPORT WEATHER SUCH AS PRECIPITATION OR FOG.

+ - STATION NOT QUALITY CONTROLLED BY THE NATIONAL WEATHER SERVICE.
    USE DATA WITH CAUTION...ESPECIALLY DEWPOINT AND RELATIVE
    HUMIDITY OBSERVATIONS.

INZ001>003-010>013-019-020-060400-
NORTHWEST INDIANA

CITY           SKY/WX    TMP DP  RH WIND       PRES   REMARKS
GARY /AIRPORT/ CLOUDY    48 N/A N/A CALM      30.20F FOG

$$

LMZ046-743>745-060400-
SOUTHERN LAKE MICHIGAN

STATION/POSITION TIME  TEMP    WIND        PRES    WAVE
                       AIR SEA DIR/SP/G            HT
                 (UTC) (F)     (DEG/KT/KT) (MB)    (FT)
BURNS HARBOR     0200   51      CALM  /  2 1023.4R
MICHIGAN CITY    0200   57      50/  4/  5   N/A
5NW MICH CITY    0200   51 50   60/  6/  6   N/A     1

$$

INZ004-005-014>016-021>024-060400-
NORTH CENTRAL INDIANA

CITY           SKY/WX    TMP DP  RH WIND       PRES   REMARKS
GOSHEN         CLOUDY    56  55  97 E7        30.23R FOG
PERU/GRISSOM   CLOUDY    64  61  88 NE8       30.19R
SOUTH BEND     CLOUDY    55  52  89 E10       30.24R

$$

INZ006>009-017-018-025>027-060400-
NORTHEAST INDIANA

CITY           SKY/WX    TMP DP  RH WIND       PRES   REMARKS
ANGOLA *+      CLOUDY    52  39  62 E7        30.23S
FORT WAYNE     CLOUDY    56  54  93 E13       30.23R FOG

$$

INZ028-029-035-036-043>045-051>053-060400-
WEST CENTRAL INDIANA

CITY           SKY/WX    TMP DP  RH WIND       PRES   REMARKS
GREENCASTLE +  PTCLDY    70  48  46 S5        30.19R
LAFAYETTE      PTCLDY    67  63  87 CALM      30.16R
TERRE HAUTE    MOCLDY    70  54  56 S6        30.17R

$$

INZ030>032-037>040-046>048-054>057-064-065-060400-
CENTRAL INDIANA

CITY           SKY/WX    TMP DP  RH WIND       PRES   REMARKS
GREENWOOD *+   MOCLDY    70  52  52 S6        30.19
INDIANAPOLIS   MOCLDY    70  52  52 S6        30.17R
-EAGLE CREEK   MOCLDY    65  57  75 CALM      30.17R
KOKOMO *+      CLOUDY    63  61  94 NE13      30.20R
MT COMFORT *+  MOCLDY    66  45  45 S3        30.19S
SHELBYVILLE    PTCLDY    69  53  56 S5        30.18R

$$

INZ033-034-041-042-049-050-058-059-060400-
EAST CENTRAL INDIANA

CITY           SKY/WX    TMP DP  RH WIND       PRES   REMARKS
MUNCIE         PTCLDY    70  54  56 S6        30.18R

$$

INZ060-061-067>069-081>083-085>088-060400-
SOUTHWEST INDIANA

CITY           SKY/WX    TMP DP  RH WIND       PRES   REMARKS
EVANSVILLE     CLEAR     69  54  58 CALM      30.19R
HUNTINGBURG *+ CLEAR     68  52  56 S3        30.19R

$$

INZ062-063-066-070>080-084-089>092-060400-
SOUTH CENTRAL AND SOUTHEAST INDIANA

CITY           SKY/WX    TMP DP  RH WIND       PRES   REMARKS
BLOOMINGTON    PTCLDY    64  54  69 CALM      30.19R
MADISON *+     CLEAR     63  54  72 CALM      30.23R
SEYMOUR +      CLEAR     64  55  72 CALM      30.19R

$$




USA.gov is the U.S. government's official web portal to all federal, state and local government web resources and services.